sat.trackr.live / text

‹ back to catalog

MUSAT-3ALPHA

NORAD 64573 · 2025-135AX

PAYLOAD ACTIVE UNKNOWN

§ Identity

Operator
Country
US
Launch date
2025-06-23
Launch site
AFWTR
Launch vehicle
Mass (kg)
RCS (m²)

External: N2YO · Heavens-Above · Gunter

§ Orbital elements

Epoch: 2026-09-21T19:56:42.244800Z

Period
95.76 min
Inclination
97.7160°
Eccentricity
0.0001184
Mean motion
15.03747818 rev/d
Perigee alt
554.5 km
Apogee alt
556.2 km
Semi-major
6,933.5 km
B*
6.6410e-5
RAAN
18.7599°
Arg perigee
320.0681°
Mean anomaly
40.0457°
Rev number
6,845

§ Raw data

MUSAT-3ALPHA1 64573U 25135AX  26264.83104450  .00000850  00000+0  66410-4 0  99992 64573  97.7160  18.7599 0001184 320.0681  40.0457 15.03747818 68457

JSON: /api/v1/satellites/64573 · /tle

For live sub-satellite position, see the globe view (requires WebGL).

§ Visibility from observer

Set your observer location to see the next 7 days of passes ≥ 10°. The values pass through the URL so the page stays shareable.

No JS? Fill the form by hand. The geolocation button needs JavaScript.